Date String (YYYY-MM-DD hh:mm:ss) UTC,Instrument flags,absolute air pressure of the measurement (hPa),sample flow rate (lpm),inlet stack bypass flow (lpm),air temperature of the measurement (°C),ambient temperature measured by the external sensor (°C),aerosol sample conditioner tube jacket temperature (°C),OPC LED temperature (°C),internal box temperature (°C),relative humidity of the measurement (%),span deviation,mass concentration of particles derived from Lorenz-Mie calculation of OPC scattering (μg/m³),mass concentration of particles derived from Lorenz-Mie calculation of OPC scattering (μg/m³),mass concentration of particles derived from Lorenz-Mie calculation of OPC scattering (μg/m³)
DateTimeUTC,F1_M11,P_M11,Q1_M11,Q2_M11,T1_M11,T2_M11,T3_M11,T4_M11,T5_M11,U1_M11,ZSPAN_M11,X0_M11,X2_M11,X1_M11
2024-03-01 15:00:00,SystemResetWarning,0822.8,5.00,000.00,019.9,019.2,000.0,028.1,021.6,12.0,0000.0,0007.17,0003.12,0001.56
2024-03-01 15:01:00,SystemResetWarning,0822.7,4.99,000.00,019.9,019.2,000.0,028.1,021.6,11.8,0000.0,0007.19,0003.12,0001.57
2024-03-01 15:02:00,SystemResetWarning,0822.7,5.00,000.00,019.9,019.2,000.0,028.1,021.6,11.7,0000.0,0007.35,0003.17,0001.59
2024-03-01 15:03:00,SystemResetWarning,0822.7,5.00,000.00,019.9,019.2,000.0,028.1,021.6,11.9,0000.0,0007.33,0003.15,0001.58
2024-03-01 15:04:00,SystemResetWarning,0822.7,5.00,000.00,019.9,019.2,000.0,028.1,021.6,11.8,0000.0,0007.35,0003.16,0001.58
2024-03-01 15:05:00,SystemResetWarning,0823.0,5.00,000.00,019.9,019.2,000.0,028.1,021.6,11.5,0000.0,0007.24,0003.16,0001.57
2024-03-01 15:06:00,SystemResetWarning,0822.7,5.01,000.00,019.9,019.2,000.0,028.1,021.6,11.5,0000.0,0007.22,0003.16,0001.57
2024-03-01 15:07:00,SystemResetWarning,0822.7,5.00,000.00,019.9,019.2,000.0,028.1,021.6,11.5,0000.0,0007.48,0003.14,0001.56
2024-03-01 15:08:00,SystemResetWarning,0823.0,5.00,000.00,019.9,019.2,000.0,028.1,021.6,11.5,0000.0,0007.70,0003.15,0001.56
2024-03-01 15:09:00,SystemResetWarning,0823.2,5.01,000.00,019.9,019.2,000.0,028.1,021.6,11.2,0000.0,0007.76,0003.13,0001.56
2024-03-01 15:10:00,SystemResetWarning,0823.0,5.00,000.00,019.9,019.3,000.0,028.1,021.6,11.5,0000.0,0007.86,0003.16,0001.57
2024-03-01 15:11:00,SystemResetWarning,0822.8,4.99,000.00,019.9,019.3,000.0,028.1,021.6,11.7,0000.0,0007.69,0003.14,0001.56
2024-03-01 15:12:00,SystemResetWarning,0822.9,4.99,000.00,019.9,019.3,000.0,028.1,021.6,11.7,0000.0,0007.62,0003.12,0001.54
2024-03-01 15:13:00,SystemResetWarning,0822.9,5.00,000.00,019.9,019.3,000.0,028.1,021.6,11.6,0000.0,0007.48,0003.08,0001.51
2024-03-01 15:14:00,SystemResetWarning,0823.0,5.01,000.00,019.9,019.3,000.0,028.1,021.6,11.7,0000.0,0007.54,0003.11,0001.51
2024-03-01 15:15:00,SystemResetWarning,0823.0,5.00,000.00,019.9,019.3,000.0,028.1,021.7,11.7,0000.0,0008.66,0003.16,0001.51
2024-03-01 15:16:00,SystemResetWarning,0823.1,5.00,000.00,020.0,019.3,000.0,028.1,021.7,11.8,0000.0,0008.93,0003.16,0001.51
2024-03-01 15:17:00,SystemResetWarning,0822.9,5.00,000.00,020.0,019.3,000.0,028.1,021.7,11.8,0000.0,0009.30,0003.17,0001.51
2024-03-01 15:18:00,SystemResetWarning,0822.9,5.00,000.00,020.0,019.4,000.0,028.1,021.7,11.7,0000.0,0008.97,0003.15,0001.51
2024-03-01 15:19:00,SystemResetWarning,0822.8,4.99,000.00,020.0,019.4,000.0,028.1,021.7,11.7,0000.0,0009.02,0003.11,0001.51
2024-03-01 15:20:00,SystemResetWarning,0823.0,5.00,000.00,020.0,019.4,000.0,028.1,021.7,11.8,0000.0,0009.04,0003.12,0001.49
2024-03-01 15:21:00,SystemResetWarning,0823.1,5.00,000.00,020.0,019.4,000.0,028.1,021.7,11.8,0000.0,0008.82,0002.99,0001.47
2024-03-01 15:22:00,SystemResetWarning,0822.9,5.01,000.00,020.0,019.4,000.0,028.1,021.7,11.8,0000.0,0008.85,0003.00,0001.47
2024-03-01 15:23:00,SystemResetWarning,0822.9,4.99,000.00,020.0,019.4,000.0,028.1,021.7,11.8,0000.0,0008.91,0003.02,0001.48
2024-03-01 15:24:00,SystemResetWarning,0823.1,4.99,000.00,020.0,019.4,000.0,028.1,021.7,11.8,0000.0,0009.03,0003.04,0001.48
2024-03-01 15:25:00,SystemResetWarning,0822.9,5.00,000.00,020.0,019.4,000.0,028.2,021.7,11.9,0000.0,0009.26,0003.10,0001.48
2024-03-01 15:26:00,SystemResetWarning,0823.0,5.00,000.00,020.0,019.4,000.0,028.2,021.7,11.8,0000.0,0008.41,0003.11,0001.46
2024-03-01 15:27:00,SystemResetWarning,0823.0,5.01,000.00,020.0,019.4,000.0,028.2,021.7,11.7,0000.0,0008.29,0003.17,0001.47
2024-03-01 15:28:00,SystemResetWarning,0823.1,4.99,000.00,020.0,019.4,000.0,028.2,021.8,11.6,0000.0,0008.01,0003.20,0001.47
2024-03-01 15:29:00,SystemResetWarning,0823.0,4.98,000.00,020.1,019.4,000.0,028.2,021.8,11.7,0000.0,0008.07,0003.21,0001.48
2024-03-01 15:30:00,SystemResetWarning,0822.9,5.02,000.00,020.1,019.5,000.0,028.2,021.8,11.7,0000.0,0007.75,0003.23,0001.48
2024-03-01 15:31:00,SystemResetWarning,0822.8,5.00,000.00,020.1,019.5,000.0,028.2,021.8,11.6,0000.0,0007.69,0003.22,0001.50
2024-03-01 15:32:00,SystemResetWarning,0822.9,4.99,000.00,020.1,019.5,000.0,028.2,021.8,11.7,0000.0,0007.76,0003.26,0001.52
2024-03-01 15:33:00,SystemResetWarning,0823.0,5.00,000.00,020.1,019.5,000.0,028.2,021.8,11.6,0000.0,0008.01,0003.31,0001.52
2024-03-01 15:34:00,SystemResetWarning,0823.0,5.00,000.00,020.1,019.5,000.0,028.2,021.8,11.5,0000.0,0007.83,0003.27,0001.51
2024-03-01 15:35:00,SystemResetWarning,0822.9,5.00,000.00,020.1,019.5,000.0,028.2,021.8,11.4,0000.0,0007.77,0003.27,0001.52
2024-03-01 15:36:00,SystemResetWarning,0823.0,5.00,000.00,020.1,019.5,000.0,028.2,021.8,11.5,0000.0,0007.55,0003.22,0001.52
2024-03-01 15:37:00,SystemResetWarning,0823.0,5.00,000.00,020.1,019.5,000.0,028.2,021.8,11.4,0000.0,0007.62,0003.25,0001.52
2024-03-01 15:38:00,SystemResetWarning,0823.1,5.00,000.00,020.1,019.5,000.0,028.2,021.8,11.5,0000.0,0007.63,0003.26,0001.52
2024-03-01 15:39:00,SystemResetWarning,0823.1,5.00,000.00,020.1,019.5,000.0,028.3,021.9,11.6,0000.0,0007.51,0003.23,0001.53
2024-03-01 15:40:00,SystemResetWarning,0823.0,5.00,000.00,020.1,019.5,000.0,028.3,021.8,11.5,0000.0,0007.43,0003.20,0001.53
2024-03-01 15:41:00,SystemResetWarning,0823.0,5.00,000.00,020.2,019.5,000.0,028.3,021.9,11.7,0000.0,0007.35,0003.19,0001.52
2024-03-01 15:42:00,SystemResetWarning,0823.0,5.00,000.00,020.2,019.6,000.0,028.3,021.9,11.8,0000.0,0007.28,0003.21,0001.53
2024-03-01 15:43:00,SystemResetWarning,0823.0,5.00,000.00,020.2,019.6,000.0,028.3,021.9,11.8,0000.0,0007.16,0003.19,0001.54
2024-03-01 15:44:00,SystemResetWarning,0823.0,5.00,000.00,020.2,019.6,000.0,028.3,021.9,11.7,0000.0,0006.39,0003.10,0001.54
2024-03-01 15:45:00,SystemResetWarning,0822.9,5.00,000.00,020.2,019.6,000.0,028.3,021.9,11.8,0000.0,0006.37,0003.12,0001.55
2024-03-01 15:46:00,SystemResetWarning,0823.1,5.00,000.00,020.2,019.6,000.0,028.3,021.9,11.6,0000.0,0006.68,0003.07,0001.54
2024-03-01 15:47:00,SystemResetWarning,0823.1,5.00,000.00,020.2,019.6,000.0,028.3,021.9,11.5,0000.0,0006.59,0003.03,0001.52
2024-03-01 15:48:00,SystemResetWarning,0823.1,5.00,000.00,020.2,019.6,000.0,028.3,021.9,11.6,0000.0,0006.27,0002.92,0001.52
2024-03-01 15:49:00,SystemResetWarning,0822.9,4.99,000.00,020.2,019.6,000.0,028.3,021.9,11.6,0000.0,0006.14,0002.86,0001.50
2024-03-01 15:50:00,SystemResetWarning,0823.0,4.99,000.00,020.2,019.6,000.0,028.3,021.9,11.6,0000.0,0006.18,0002.87,0001.50
2024-03-01 15:51:00,SystemResetWarning,0822.9,4.99,000.00,020.2,019.6,000.0,028.3,021.9,11.6,0000.0,0006.56,0002.88,0001.49
2024-03-01 15:52:00,SystemResetWarning,0823.0,5.00,000.00,020.2,019.6,000.0,028.3,021.9,11.5,0000.0,0007.39,0002.89,0001.48
2024-03-01 15:53:00,SystemResetWarning,0822.9,5.01,000.00,020.2,019.6,000.0,028.4,022.0,11.6,0000.0,0007.36,0002.84,0001.47
2024-03-01 15:54:00,SystemResetWarning,0822.9,5.01,000.00,020.3,019.6,000.0,028.4,022.0,11.6,0000.0,0008.27,0002.83,0001.45
2024-03-01 15:55:00,SystemResetWarning,0823.0,5.00,000.00,020.3,019.6,000.0,028.4,022.0,11.6,0000.0,0008.47,0002.88,0001.43
2024-03-01 15:56:00,SystemResetWarning,0823.0,5.00,000.00,020.3,019.7,000.0,028.4,022.0,11.5,0000.0,0008.52,0002.87,0001.42
2024-03-01 15:57:00,SystemResetWarning,0822.9,5.00,000.00,020.3,019.7,000.0,028.4,022.0,11.6,0000.0,0008.32,0002.90,0001.42
2024-03-01 15:58:00,SystemResetWarning,0823.0,5.00,000.00,020.3,019.7,000.0,028.4,022.0,11.5,0000.0,0008.44,0003.01,0001.43
2024-03-01 15:59:00,SystemResetWarning,0823.1,5.00,000.00,020.3,019.7,000.0,028.4,022.0,11.6,0000.0,0008.45,0002.99,0001.44
